Regional Weather Roundup
Issued by NWS Newport/Morehead, NC

Current Version | Previous Version | Text Only | Print | Product List | Glossary On
Versions: 1 2 3 4 5 6 7 8 9 10 11 12 13 14 15 16 17 18 19 20 21 22 23 24 25 26 27 28 29 30 31 32 33 34 35 36 37 38 39 40 41 42 43 44 45 46 47 48 49 50
000 ASUS42 KMHX 252125 RWRMHX WEATHER ROUNDUP FOR EASTERN NORTH CAROLINA NATIONAL WEATHER SERVICE NEWPORT/MOREHEAD CITY NC 500 PM EDT WED MAY 25 2016 NOTE: "FAIR" INDICATES FEW OR NO CLOUDS BELOW 12,000 FEET WITH NO SIGNIFICANT WEATHER AND/OR OBSTRUCTIONS TO VISIBILITY NCZ015>017-031-032-045>047-102-103-252200- NORTH COAST CITY SKY/WX TMP DP RH WIND PRES REMARKS EDENTON SUNNY 87 55 32 W6 30.16S ELIZABETH CITY SUNNY 86 56 35 S10 30.14F KITTY HAWK CLEAR 87 59 38 S7 30.15S MANTEO MOSUNNY 79 66 64 S13 30.17S $$ NCZ045>047-081-094-103-104-252200- CENTRAL COAST CITY SKY/WX TMP DP RH WIND PRES REMARKS FRISCO SUNNY 75 68 78 SW8 30.20S $$ NCZ095-097-098-100-101-252200- SOUTHERN COAST CITY SKY/WX TMP DP RH WIND PRES REMARKS BEAUFORT SUNNY 77 68 73 S12 30.20F CEDAR ISLAND NOT AVBL JACKSONVILLE SUNNY 83 55 38 S15 30.18S PINEY ISLAND CLEAR N/A N/A N/A S14 30.19S WILMINGTON SUNNY 83 58 42 S12 30.18F $$ NCZ011>013-027>030-043-044-078>080-089-090>093-098-252200- COASTAL PLAIN CITY SKY/WX TMP DP RH WIND PRES REMARKS AHOSKIE SUNNY 85 55 35 CALM 30.14F CLINTON SUNNY 87 61 41 SW3 30.17S ELIZABETHTOWN SUNNY 87 54 32 S5 30.17S GOLDSBORO MOSUNNY 89 54 29 W8 30.15F GREENVILLE MOSUNNY 88 57 35 S5 30.16F HAVELOCK MOSUNNY 82 56 40 S14 30.19S KENANSVILLE MOSUNNY 86 50 29 W3 30.17F KINSTON SUNNY 88 52 29 W6 30.17F NEW BERN MOSUNNY 85 59 41 S12 30.17F RICHLANDS PTSUNNY 83 60 45 S14 30.18S ROCKY MOUNT MOSUNNY 85 54 34 SW7 30.15F WASHINGTON MOSUNNY 87 56 35 W7 30.16S WHITEVILLE MOSUNNY 87 55 33 W3 30.17S $$ AMZ130-135-150-152-154-156-158-170-250-252-270-ANZ085-086-088-633-658-670-252200- MARINE OBSERVATIONS STATION/POSITION TIME TEMP WIND PRES WAVE SWELL AIR SEA DIR/SP/G HT/PER HT/PER (UTC) (F) (DEG/KT/KT) (MB) (FT/S) (FT/S) CHESAPEAKE LIGHT 2100 71 150/ 14/ 15 1021.3 64 E VA BEACH 2050 65 60 200/ 8/ 10 1021.3 2/ 8 2/ 8 DUCK 2100 83 61 230/ 5/ 7 1020.4 2 E DUCK 2011 64 N/A 2/ 9 OREGON INLET 2100 75 72 190/ 14/ 17 1021.5 13E OREGON INLT 2100 69 N/A 2/ 9 2/ 9 HATTERAS CG 2100 74 70 200/ 7/ 10 1022.1 DIAMOND BUOY 2050 74 74 220/ 8/ 8 1022.4 2/ 9 2/ 9 CAPE LOOKOUT 2100 76 200/ 12/ 15 1022.3 BEAUFORT LAB 2100 75 71 200/ 10/ 13 1021.8 30 SE NEW RVR IN 2025 74 N/A 2/ 8 27 SE WRIGHTSVLE 2108 76 74 220/ 8/ 12 1022.9 5 SE WRIGHTSVLE 2108 75 73 200/ 12/ 16 1023.3 225 S CAPE HAT 2050 75 79 60/ 6/ 10 1023.3 3/ 9 3/ 9 41 SE CHARLESTON 2050 78 80 220/ 4/ 6 1023.0 2/ 9 2/ 9 $$

USA.gov is the U.S. government's official web portal to all federal, state and local government web resources and services.